Roma, Italy

08:00 AM CEST die 25o June, anno 2018 (GMT +0200)
Albano Laziale | | Change Station

Elev 1476 ft 41.73 °N, 12.67 °E | Updated 4 minutes ago

Serena
Serena
65.4 °F
Feels Like 65.4 °F
N
0
Ventus Variabilis Ventus from Magis Eurus quam Aquilo
Gusts 0.0 mph

Hodie
High -- | Low -- °F
--% Chance of Precip.
Yesterday
High -- | Low -- °F
Precip. -- in
Pressio 29.95 in
Visibilitas -9999.0 milia passuum
Clouds
Frigus in quo Ros apparet 51 °F
Umor 61%
Rainfall 0.00 in
Snow Depth Not available.
5:35 AM 8:48 PM
Waxing Gibbous, 92% visible
METAR LIRA 250550Z VRB02KT CAVOK 19/13 Q1014
Pressio 29.95 in
Visibilitas -9999.0 milia passuum
Clouds
Frigus in quo Ros apparet 51 °F
Umor 61%
Rainfall 0.00 in
Snow Depth Not available.
5:35 AM 8:48 PM
Waxing Gibbous, 92% visible
METAR LIRA 250550Z VRB02KT CAVOK 19/13 Q1014

Get Severe Weather Alerts

Thanks for signing up!

Be on the lookout for a verification email in your inbox.

You'll start receiving the daily forecast at 6 AM.

×

10-Day Weather Forecast

×

Almanac

Astronomy

Jun. 25, 2018 Rise Set
Actual Time
Civil Twilight
Nautical Twilight
Astronomical Twilight
Moon
Length Of Visible Light
Length of Day
Tomorrow will be .
, % of the Moon is Illuminated

Today's Extremes

Country Highs Country Lows

Community

WunderPhotos

Category 6

Welcome to Category 6. This is the collective home for Weather Underground's featured writeups by Dr. Jeff Masters (right), Bob Henson (left), Chris Burt, and other regular contributors.

Nearby

Air Quality

  Air Quality AQ Index Pollutant
Not available.

Snow Depth

Station Depth Elevation

Earthquake Activity

City Distance Mag. Time & Date
Minimum magnitude displayed is 2.5.

Coastal Water Temperatures

Locus Calor

Stations

Nearby Weather Stations

Station Location Temp Frigus Venti Frigus in quo Ros apparet Umor Ventus Precip. Elev Renovata Type